TimeMDT,TemperatureF,Dew PointF,Humidity,Sea Level PressureIn,VisibilityMPH,Wind Direction,Wind SpeedMPH,Gust SpeedMPH,PrecipitationIn,Events,Conditions,WindDirDegrees,DateUTC
12:53 AM,5.0,1.0,84,30.43,2.5,WSW,4.6,-,0.00,Snow,Light Snow,240,2013-04-10 06:53:00
1:20 AM,6.8,1.4,79,30.17,3.0,WSW,3.5,-,0.00,Snow,Light Snow,240,2013-04-10 07:20:00
1:27 AM,6.8,1.4,79,30.17,2.0,SW,3.5,-,0.00,Snow,Light Snow,230,2013-04-10 07:27:00
1:35 AM,6.8,1.4,79,30.17,3.0,WSW,3.5,-,0.00,Snow,Light Snow,240,2013-04-10 07:35:00
1:53 AM,6.1,1.9,83,30.41,4.0,WSW,4.6,-,0.00,,Overcast,240,2013-04-10 07:53:00
2:07 AM,6.8,3.2,85,30.16,2.0,WSW,3.5,-,0.00,Snow,Light Snow,240,2013-04-10 08:07:00
2:24 AM,8.6,3.2,79,30.15,3.0,SW,4.6,-,0.00,Snow,Light Snow,230,2013-04-10 08:24:00
2:53 AM,9.0,3.9,80,30.38,2.0,WSW,6.9,-,0.00,Snow,Light Snow,240,2013-04-10 08:53:00
3:13 AM,8.6,3.2,79,30.14,3.0,WSW,8.1,-,0.00,Snow,Light Snow,240,2013-04-10 09:13:00
3:53 AM,8.1,3.9,83,30.38,8.0,WSW,6.9,-,0.00,,Overcast,240,2013-04-10 09:53:00
4:04 AM,8.6,3.2,79,30.13,2.5,WSW,6.9,-,0.00,Snow,Light Snow,240,2013-04-10 10:04:00
4:29 AM,8.6,5.0,85,30.13,5.0,SW,4.6,-,0.00,Snow,Light Snow,230,2013-04-10 10:29:00
4:51 AM,8.6,3.2,79,30.12,8.0,SW,5.8,-,0.00,,Overcast,230,2013-04-10 10:51:00
4:53 AM,9.0,3.9,80,30.36,9.0,SW,5.8,-,0.00,,Overcast,230,2013-04-10 10:53:00
5:11 AM,8.6,3.2,79,30.12,7.0,WSW,3.5,-,N/A,,Overcast,250,2013-04-10 11:11:00
5:53 AM,10.0,5.0,80,30.35,5.0,WSW,6.9,-,0.00,Snow,Light Snow,240,2013-04-10 11:53:00
6:53 AM,10.9,6.1,81,30.36,5.0,WSW,6.9,-,0.00,,Haze,240,2013-04-10 12:53:00
7:01 AM,10.4,6.8,85,30.13,1.8,WSW,6.9,-,0.00,Snow,Light Snow,240,2013-04-10 13:01:00
7:15 AM,10.4,6.8,85,30.14,1.5,SW,5.8,-,0.00,Snow,Light Snow,230,2013-04-10 13:15:00
7:53 AM,10.9,7.0,84,30.37,1.5,WSW,3.5,-,0.01,Snow,Light Snow,250,2013-04-10 13:53:00
8:07 AM,10.4,6.8,85,30.14,3.0,West,3.5,-,0.00,,Overcast,260,2013-04-10 14:07:00
8:16 AM,10.4,6.8,85,30.14,3.0,WSW,4.6,-,0.00,,Overcast,240,2013-04-10 14:16:00
8:53 AM,14.0,8.1,77,30.34,10.0,WSW,6.9,-,0.00,,Overcast,250,2013-04-10 14:53:00
9:53 AM,14.0,7.0,74,30.36,10.0,WSW,9.2,-,N/A,,Overcast,250,2013-04-10 15:53:00
10:53 AM,17.1,9.0,71,30.35,10.0,West,5.8,-,N/A,,Clear,270,2013-04-10 16:53:00
11:53 AM,17.1,10.0,74,30.34,10.0,SSW,3.5,-,N/A,,Clear,200,2013-04-10 17:53:00
12:53 PM,19.0,10.0,68,30.31,10.0,WSW,8.1,-,N/A,,Clear,240,2013-04-10 18:53:00
1:53 PM,21.0,10.0,63,30.26,10.0,WSW,11.5,-,N/A,,Clear,240,2013-04-10 19:53:00
2:53 PM,21.9,12.9,68,30.21,10.0,SSW,11.5,-,N/A,,Clear,210,2013-04-10 20:53:00
3:53 PM,24.1,12.9,62,30.16,10.0,SW,17.3,-,N/A,,Clear,230,2013-04-10 21:53:00
4:53 PM,25.0,14.0,63,30.12,10.0,SW,12.7,-,N/A,,Clear,220,2013-04-10 22:53:00
5:53 PM,26.1,14.0,60,30.10,10.0,SW,12.7,-,N/A,,Clear,230,2013-04-10 23:53:00
6:53 PM,24.1,14.0,65,30.07,10.0,SSW,6.9,-,N/A,,Clear,210,2013-04-11 00:53:00
7:53 PM,21.0,12.0,68,30.08,10.0,West,5.8,-,N/A,,Clear,270,2013-04-11 01:53:00
8:53 PM,18.0,10.0,71,30.06,10.0,West,5.8,-,N/A,,Scattered Clouds,260,2013-04-11 02:53:00
9:53 PM,23.0,15.1,72,30.02,10.0,WSW,4.6,-,N/A,,Overcast,250,2013-04-11 03:53:00
10:53 PM,25.0,17.1,72,29.99,10.0,SW,4.6,-,N/A,,Overcast,230,2013-04-11 04:53:00
11:53 PM,21.0,15.1,78,29.96,10.0,SSW,3.5,-,N/A,,Scattered Clouds,200,2013-04-11 05:53:00